Weather History for Batesville, AR

Change the Weather History Date:

Sunday, October 16, 2011

  Actual Average Record
Temperature  
Mean Temperature 72 °F -  
Max Temperature 87 °F 74 °F 87 °F (1953)
Min Temperature 57 °F 49 °F 30 °F (1952)
Cooling Degree Days 7    
Growing Degree Days 22 (Base 50)    
Moisture  
Dew Point 46 °F    
Average Humidity 39    
Maximum Humidity 59    
Minimum Humidity 27    
Precipitation  
Precipitation 0.00 in - - ()
Sea Level Pressure  
Sea Level Pressure 29.99 in    
Wind  
Wind Speed 7 mph (SSW)    
Max Wind Speed 17 mph    
Max Gust Speed 26 mph    
Visibility 10 miles    
Events      
Averages and records for this station are not official NWS values.
T = Trace of Precipitation, MM = Missing Value Source: NWS Daily Summary

Daily Weather History Graph

Daily Weather History Graph

Search for Another Location

Airport:

Trip Planner

Search our weather history database for the weather conditions in past years. The results will help you decide how hot, cold, wet, or windy it might be!

Date:

Astronomy

Oct. 16, 2011 Rise Set
Actual Time 7:13 AM CDT 6:30 PM CDT
Civil Twilight 6:48 AM CDT 6:55 PM CDT
Nautical Twilight 6:18 AM CDT 7:25 PM CDT
Astronomical Twilight 5:48 AM CDT 7:54 PM CDT
Moon 9:24 PM CDT (10/16) 11:22 AM CDT (10/16)
Length of Visible Light 12h 07m
Length of Day
11h 16m
Waning Gibbous, 82% of the Moon is Illuminated
Oct 16
Waning Gibbous
Oct 19
Last Quarter
Oct 26
New
Nov 2
First Quarter
Nov 10
Full

Hourly Weather History & Observations

Time (CDT) Temp. Dew Point Humidity Pressure Visibility Wind Dir Wind Speed Gust Speed Precip Events Conditions
12:15 AM 64.4 °F 37.4 °F 37% 30.07 in 10.0 mi South 5.8 mph - N/A   Clear
12:35 AM 66.2 °F 37.4 °F 35% 30.07 in 10.0 mi South 5.8 mph - N/A   Clear
12:55 AM 64.4 °F 37.4 °F 37% 30.06 in 10.0 mi SSW 8.1 mph - N/A   Clear
1:15 AM 64.4 °F 37.4 °F 37% 30.06 in 10.0 mi South 5.8 mph - N/A   Clear
1:35 AM 64.4 °F 37.4 °F 37% 30.06 in 10.0 mi South 6.9 mph - N/A   Clear
1:55 AM 64.4 °F 37.4 °F 37% 30.05 in 10.0 mi South 11.5 mph - N/A   Clear
2:15 AM 64.4 °F 37.4 °F 37% 30.04 in 10.0 mi South 8.1 mph 17.3 mph N/A   Clear
2:35 AM 64.4 °F 37.4 °F 37% 30.04 in 10.0 mi South 11.5 mph 16.1 mph N/A   Clear
2:55 AM 64.4 °F 37.4 °F 37% 30.03 in 10.0 mi South 9.2 mph - N/A   Clear
3:15 AM 62.6 °F 37.4 °F 39% 30.03 in 10.0 mi SSW 11.5 mph 16.1 mph N/A   Clear
3:55 AM 64.4 °F 39.2 °F 40% 30.03 in 10.0 mi SSW 6.9 mph - N/A   Clear
4:15 AM 64.4 °F 39.2 °F 40% 30.03 in 10.0 mi SSW 8.1 mph - N/A   Clear
4:35 AM 62.6 °F 39.2 °F 42% 30.04 in 10.0 mi SW 5.8 mph - N/A   Clear
4:55 AM 60.8 °F 39.2 °F 45% 30.04 in 10.0 mi SSW 4.6 mph - N/A   Clear
5:15 AM 60.8 °F 39.2 °F 45% 30.04 in 10.0 mi SSW 5.8 mph - N/A   Clear
5:35 AM 62.6 °F 41.0 °F 45% 30.03 in 10.0 mi South 3.5 mph - N/A   Clear
5:55 AM 59.0 °F 41.0 °F 51% - 10.0 mi Calm Calm - N/A   Clear
6:15 AM 57.2 °F 41.0 °F 55% 30.04 in 10.0 mi Calm Calm - N/A   Clear
6:35 AM 57.2 °F 41.0 °F 55% 30.04 in 10.0 mi Calm Calm - N/A   Clear
6:55 AM 59.0 °F 42.8 °F 55% 30.04 in 10.0 mi South 4.6 mph - N/A   Clear
7:15 AM 59.0 °F 42.8 °F 55% - 10.0 mi South 3.5 mph - N/A   Clear
7:35 AM 57.2 °F 42.8 °F 59% 30.04 in 10.0 mi Calm Calm - N/A   Clear
7:55 AM 57.2 °F 42.8 °F 59% 30.04 in 10.0 mi South 3.5 mph - N/A   Clear
8:15 AM 60.8 °F 42.8 °F 52% 30.04 in 10.0 mi SSE 4.6 mph - N/A   Clear
8:35 AM 60.8 °F 42.8 °F 52% 30.04 in 10.0 mi SSE 5.8 mph - N/A   Clear
8:55 AM 62.6 °F 44.6 °F 52% 30.04 in 10.0 mi South 4.6 mph - N/A   Clear
9:15 AM 66.2 °F 44.6 °F 46% 30.04 in 10.0 mi SSW 4.6 mph - N/A   Clear
9:35 AM 68.0 °F 46.4 °F 46% 30.03 in 10.0 mi SW 5.8 mph - N/A   Clear
9:55 AM 69.8 °F 46.4 °F 43% 30.03 in 10.0 mi SW 6.9 mph - N/A   Clear
10:15 AM 73.4 °F 48.2 °F 41% 30.04 in 10.0 mi WSW 5.8 mph - N/A   Clear
10:35 AM 73.4 °F 48.2 °F 41% 30.03 in 10.0 mi SSW 5.8 mph - N/A   Clear
10:55 AM 77.0 °F 50.0 °F 39% 30.03 in 10.0 mi SW 9.2 mph - N/A   Clear
11:15 AM 78.8 °F 50.0 °F 36% 30.02 in 10.0 mi SW 10.4 mph - N/A   Clear
11:35 AM 80.6 °F 48.2 °F 32% 30.02 in 10.0 mi SW 13.8 mph 20.7 mph N/A   Clear
11:55 AM 82.4 °F 48.2 °F 30% 30.02 in 10.0 mi WSW 15.0 mph 25.3 mph N/A   Clear
12:35 PM 84.2 °F 51.8 °F 33% 30.01 in 10.0 mi SW 11.5 mph - N/A   Clear
12:55 PM 84.2 °F 50.0 °F 30% 30.00 in 10.0 mi WSW 15.0 mph 20.7 mph N/A   Clear
1:15 PM 84.2 °F 50.0 °F 30% - 10.0 mi West 16.1 mph 23.0 mph N/A   Clear
1:35 PM 84.2 °F 50.0 °F 30% 29.97 in 10.0 mi West 17.3 mph 26.5 mph N/A   Clear
2:15 PM 86.0 °F 51.8 °F 31% 29.96 in 10.0 mi WSW 13.8 mph 18.4 mph N/A   Clear
2:35 PM 86.0 °F 51.8 °F 31% 29.95 in 10.0 mi SW 15.0 mph 19.6 mph N/A   Clear
2:55 PM 86.0 °F 50.0 °F 29% 29.94 in 10.0 mi WSW 10.4 mph 20.7 mph N/A   Clear
3:15 PM 87.8 °F 50.0 °F 27% 29.94 in 10.0 mi WSW 12.7 mph 20.7 mph N/A   Clear
3:35 PM 87.8 °F 51.8 °F 29% 29.94 in 10.0 mi SW 11.5 mph - N/A   Clear
3:55 PM 87.8 °F 50.0 °F 27% 29.93 in 10.0 mi SW 11.5 mph 18.4 mph N/A   Clear
4:15 PM 87.8 °F 51.8 °F 29% 29.92 in 10.0 mi SW 11.5 mph 16.1 mph N/A   Clear
4:35 PM 87.8 °F 50.0 °F 27% 29.92 in 10.0 mi SW 12.7 mph - N/A   Clear
4:55 PM 86.0 °F 51.8 °F 31% 29.92 in 10.0 mi SW 6.9 mph - N/A   Clear
5:15 PM 86.0 °F 50.0 °F 29% 29.91 in 10.0 mi SW 10.4 mph - N/A   Clear
5:35 PM 84.2 °F 50.0 °F 30% 29.90 in 10.0 mi SW 8.1 mph - N/A   Clear
5:55 PM 82.4 °F 50.0 °F 32% 29.90 in 10.0 mi SW 5.8 mph - N/A   Partly Cloudy
6:15 PM 82.4 °F 50.0 °F 32% 29.90 in 10.0 mi SW 8.1 mph - N/A   Clear
6:35 PM 80.6 °F 50.0 °F 34% 29.90 in 10.0 mi SSW 5.8 mph - N/A   Clear
6:55 PM 78.8 °F 48.2 °F 34% 29.90 in 10.0 mi SSW 3.5 mph - N/A   Clear
7:15 PM 78.8 °F 50.0 °F 36% 29.90 in 10.0 mi South 5.8 mph - N/A   Clear
7:35 PM 78.8 °F 50.0 °F 36% 29.91 in 10.0 mi South 6.9 mph - N/A   Clear
7:55 PM 78.8 °F 50.0 °F 36% 29.91 in 10.0 mi South 5.8 mph - N/A   Clear
8:15 PM 78.8 °F 50.0 °F 36% 29.92 in 10.0 mi SSW 3.5 mph - N/A   Clear
8:35 PM 77.0 °F 51.8 °F 41% 29.92 in 10.0 mi SSE 5.8 mph - N/A   Clear
8:55 PM 77.0 °F 50.0 °F 39% 29.92 in 10.0 mi South 3.5 mph - N/A   Clear
9:15 PM 77.0 °F 51.8 °F 41% 29.92 in 10.0 mi SSW 8.1 mph - N/A   Clear
9:35 PM 75.2 °F 51.8 °F 44% 29.92 in 10.0 mi SSW 5.8 mph - N/A   Clear
9:55 PM 75.2 °F 50.0 °F 41% 29.92 in 10.0 mi SSW 9.2 mph - N/A   Clear
10:15 PM 73.4 °F 51.8 °F 47% 29.93 in 10.0 mi WSW 4.6 mph - N/A   Clear
10:35 PM 73.4 °F 50.0 °F 44% 29.93 in 10.0 mi WSW 5.8 mph - N/A   Clear
10:55 PM 75.2 °F 50.0 °F 41% 29.93 in 10.0 mi WSW 8.1 mph - N/A   Clear
11:15 PM 73.4 °F 50.0 °F 44% 29.93 in 10.0 mi West 4.6 mph - N/A   Clear
11:35 PM 73.4 °F 50.0 °F 44% 29.93 in 10.0 mi West 5.8 mph - N/A   Clear
11:55 PM 75.2 °F 50.0 °F 41% 29.93 in 10.0 mi West 5.8 mph - N/A   Clear